SL-14 R/B (20262 NORAD) Tracking and Keplerian Element Data

This shows tracking and keplerian element data for the satellite.

Feedback or suggestion? Click here.




ElementValue
Catalog20262
NameSL-14 R/B
Epoch Orbit56184
Epoch Day12.88228638
Epoch Year2024
RAAN318.1323
Inclination82.5953
Eccentricity0.1234238
Argument of Perigee182.0351
Mean Anonmoly177.544
Mean Motion12.49561661
Decay Rate2.72E-06
L11 20262U 89080C 24012.88228638 .00000272 00000+0 77034-4 0 9996
L22 20262 82.5953 318.1323 1234238 182.0351 177.5440 12.49561661561843



Live tracking and technical data element details for SL-14 R/B (NORAD 20262). SL-14 R/B can be tracked NOW for your location showing map with azimuth and elevation plus other details from your city location.







IsCatalogInMostPopularTable: catalog: 20262, numindb: 369
Update: records affected: 1



GetName: 20262 SL-14 R/B

Hit Count: updated at: Fri, 19 Apr 2024 12:55:20 GMT